Regional Weather Roundup
Issued by NWS

Home | Current Version | Previous Version | Graphics & Text | Print | Product List | Glossary On
Versions: 1 2 3 4 5 6 7 8 9 10 11 12 13 14 15 16 17 18 19 20 21 22 23 24 25 26 27 28 29 30 31 32 33 34 35 36 37 38 39 40 41 42 43 44 45 46 47 48 49 50
000
ASUS44 KMEG 181300
RWRTN
TENNESSEE HOURLY STATE WEATHER ROUNDUP
NATIONAL WEATHER SERVICE MEMPHIS TN
800 AM CDT FRI AUG 18 2017

TNZ002-004-019-021-049-052-054-088>092-181400-
WEST TENNESSEE

CITY           SKY/WX    TMP DP  RH WIND       PRES   REMARKS
MEMPHIS INTL   PTSUNNY   76  74  93 W3        30.02R
NWS MEMPHIS      N/A     74 N/A N/A MISG        N/A
JACKSON        SUNNY     75  74  96 W6        30.01R
DYERSBURG      SUNNY     74  72  93 W6        30.02R
$$

TNZ008-025-027-028-033-062-065-066-181400-
NORTH MIDDLE TENNESSEE

CITY           SKY/WX    TMP DP  RH WIND       PRES   REMARKS
NASHVILLE      PTSUNNY   77  71  82 W8        29.99R
CLARKSVILLE    SUNNY     75  71  87 W5        29.98R
SMYRNA         MOSUNNY   78  73  84 W7        29.99R
CROSSVILLE     CLOUDY    71  70  96 W3        30.04R
$$

TNZ061-075-076-078-094-096-097-181400-
SOUTH MIDDLE TENNESSEE

CITY           SKY/WX    TMP DP  RH WIND       PRES   REMARKS
TULLAHOMA        N/A     75  72  88 W9        30.03R
WINCHESTER     PTSUNNY   75  73  94 W3        30.02R
$$

TNZ017-018-042-046-047-181400-
NORTHEAST TENNESSEE

CITY           SKY/WX    TMP DP  RH WIND       PRES   REMARKS
TRI CITIES     CLOUDY    75  72  90 SW5       30.00S
$$

TNZ012-013-036-069-073-074-181400-
CENTRAL EAST TENNESSEE

CITY           SKY/WX    TMP DP  RH WIND       PRES   REMARKS
KNOXVILLE      PTSUNNY   78  72  81 SW10      29.97F
OAK RIDGE      LGT RAIN  76  73  91 CALM      29.99S
GATLINBURG     MOSUNNY   75  72  88 SW6       29.98S
$$

TNZ083-085-099-181400-
SOUTHEAST TENNESSEE

CITY           SKY/WX    TMP DP  RH WIND       PRES   REMARKS
CHATTANOOGA    PTSUNNY   80  71  74 W6        29.99S
$$

SKY/WX REPORTED AS FAIR MEANS FEW OR NO CLOUDS BELOW
12 THOUSAND FEET.




USA.gov is the U.S. government's official web portal to all federal, state and local government web resources and services.